Погода в Воробьёвке

Россия / Республика Калмыкия     46°12′14″N   43°45′58″E
темп.,
°C
ветер,
м/с
пор.,
м/с
влажн.,
%
обл.,
%
осадки,
мм/ч
давл.,
гПа
погр.,
м
17 июня, чт
чт1700:00+25всв512500 0.0 1007266
03:00+24всв8165399 0.2 1006472
06:00+24всв9185997 0.3 1005710
09:00+29вюв91240100 0.6 10061287
12:00+34юв592925 0.0 10062739
15:00+27зсз121059100 0.0 1007559
18:00+22зсз121673100 0.1 1011613
21:00+20сз101771100 0.1 1013541
18 июня, пт
пт1800:00+19сз7147325 0.0 1013453
03:00+17зсз712897 0.0 1013405
06:00+18зсз799097 0.0 1014387
09:00+23зсз567116 0.0 1014678
12:00+28зсз44500 0.0 10141241
15:00+30зсз32440 0.0 10141574
18:00+30зюз32440 0.0 1014762
21:00+24зсз35690 0.0 1016115
19 июня, сб
сб1900:00+22ссв35780 0.1 1016117
03:00+23всв614580 0.1 1017381
06:00+23всв916380 0.0 1018534
09:00+27в1114300 0.0 1018964
12:00+31в1114250 0.0 10171599
15:00+32в121423100 0.0 10151992
18:00+31в1115265 0.0 10151425
21:00+27в917285 0.0 1016610
20 июня, вс
вс2000:00+24всв917290 0.0 1016505
03:00+23всв1019270 0.0 1015521
06:00+23всв101933100 0.0 1015494
09:00+29в11152694 0.0 1015682
12:00+34в1113211 0.0 10141357
15:00+36вюв1214224 0.0 10131924
18:00+32вюв1014254 0.0 10141181
21:00+27вюв816284 0.0 1015605
21 июня, пн
пн2100:00+25в817290 0.0 1015474
03:00+23в817260 0.0 1014383
06:00+23в917360 0.0 1014422
09:00+31в1115240 0.0 10141138
12:00+35вюв1214140 0.0 10131980
15:00+36вюв1113130 0.0 10122214
18:00+33вюв912180 0.0 10131275
21:00+27вюв614250 0.0 1014372